Snowfall_Accumulation
0.4 0.1 0.0 0.1 0.0 0.0 0.0 0.2 0.8 1.1 1.7 1.9 1.8 2.1 2.0 1.9 1.5 1.0 1.3 1.3 1.7 2.5 2.8 3.4 2.8 2.8 2.8 3.0 2.1 2.1 3.1 4.2 5.5 1.6 0.7 0.5 0.2 0.3 0.0 0.4 0.0 0.0 0.0
1.6 1.2 1.0 1.0 0.7 0.7 0.6 0.6 1.0 1.6 2.0 2.8 2.9 2.3 2.1 2.2 2.4 1.6 1.1 0.6 0.8 1.2 1.9 2.8 2.6 2.2 3.6 3.7 3.4 3.8 4.3 3.7 5.7 6.6 4.1 4.0 2.9 0.9 0.5 1.0 2.2 0.1 0.2
2.7 2.5 1.9 1.5 1.1 1.1 1.9 2.6 1.1 1.7 1.7 2.4 2.1 2.1 2.5 2.2 2.0 1.4 0.7 0.8 1.4 2.2 3.1 3.6 3.6 2.3 3.7 5.7 5.8 4.0 5.5 4.0 5.3 5.3 7.0 4.7 3.9 2.1 1.1 0.0 2.8 2.8 0.2
3.6 3.4 3.7 3.7 2.4 2.1 1.9 2.2 2.3 3.7 3.9 4.3 3.9 2.9 3.1 2.4 2.4 1.4 0.6 0.7 0.7 1.6 1.9 2.3 2.4 3.6 5.6 3.2 6.3 7.4 8.1 8.3 9.6 10.9 15.2 15.6 11.1 10.2 3.0 5.3 2.8 3.9 3.5
3.9 2.8 2.3 2.6 4.4 2.8 2.6 3.3 4.2 3.7 3.7 4.0 3.5 3.6 5.3 5.1 5.1 5.2 2.9 2.2 2.0 1.0 1.5 0.4 1.6 1.7 1.6 2.3 5.0 4.5 5.0 6.8 10.0 13.3 15.5 15.1 15.6 13.1 12.9 8.3 8.8 7.9 5.8
0.8 1.0 1.4 0.7 1.6 2.5 2.2 2.5 2.2 1.6 3.2 4.6 7.1 5.8 10.0 8.3 6.6 5.5 2.8 3.4 2.8 2.9 2.7 2.2 1.5 1.0 1.6 1.4 2.2 2.5 3.4 6.2 10.0 8.6 9.9 10.8 10.5 10.4 9.3 10.2 10.2 11.8 16.3
0.1 0.2 0.2 0.4 0.5 0.7 1.3 1.1 1.6 2.4 1.7 6.2 8.7 9.9 5.5 8.3 5.9 5.7 5.2 4.5 4.1 3.8 3.6 2.7 3.1 3.4 2.9 1.6 1.7 2.0 2.0 2.4 4.9 6.6 9.5 8.5 7.8 6.5 5.5 7.6 7.0 8.0 11.8
0.1 0.3 0.4 0.7 0.9 1.9 1.6 2.0 2.1 2.0 2.2 2.3 1.2 2.3 2.9 3.3 3.5 7.7 4.8 9.8 6.6 5.5 4.1 3.8 4.9 4.3 4.3 3.7 4.4 4.7 3.4 2.8 4.1 4.1 4.6 5.4 6.5 4.4 3.4 3.1 3.9 6.6 5.5
0.4 1.0 1.1 1.1 1.5 1.6 1.7 1.6 1.4 2.2 1.9 2.0 0.9 0.2 0.1 0.4 0.8 0.5 0.8 2.7 1.9 3.2 5.5 4.9 5.0 5.2 5.1 5.4 5.0 6.3 6.0 5.9 3.5 3.2 3.5 3.3 4.1 2.1 1.5 3.4 8.1 8.1 11.6
1.2 1.5 1.4 1.9 2.0 2.3 2.7 2.7 2.2 1.6 1.3 1.7 3.3 0.2 0.4 1.4 0.9 0.9 0.7 0.2 0.5 1.1 1.6 1.9 3.7 5.4 5.6 3.8 7.1 7.1 8.1 6.3 7.4 8.0 6.7 2.9 2.4 3.4 2.5 4.2 7.3 14.9 12.9
3.6 3.1 1.2 1.3 1.7 1.7 1.7 1.3 0.9 0.9 1.6 3.0 2.7 0.6 1.0 1.3 2.0 1.7 0.7 0.4 1.5 1.6 0.9 0.9 1.4 3.9 3.4 3.0 3.2 5.2 8.0 6.7 7.4 9.7 10.9 9.3 11.5 6.4 5.8 6.5 7.1 10.2 13.6
8.3 9.6 5.8 3.1 4.6 3.2 1.1 1.1 0.8 0.9 1.8 2.5 2.8 2.6 2.8 1.8 1.2 0.5 1.5 1.4 1.0 3.0 2.9 2.9 3.7 2.1 2.3 1.5 2.3 5.6 6.0 6.8 8.6 12.3 13.4 14.5 16.4 15.4 14.6 12.5 10.4 9.9 9.1
10.7 14.1 8.7 9.8 4.6 3.2 0.6 0.5 0.7 0.6 1.1 0.8 1.8 1.5 2.2 2.4 1.9 1.7 1.2 1.0 1.6 3.1 4.5 5.1 3.5 5.2 4.2 6.5 9.2 14.8 14.0 18.7 23.6 24.8 22.6 20.7 15.9 11.0 6.7 5.9 4.3 2.8 3.7
12.8 12.3 12.3 8.7 9.6 9.0 4.1 5.0 2.4 2.3 1.2 1.4 1.1 2.8 1.0 1.2 1.6 1.8 3.6 2.6 3.4 4.9 10.8 17.1 19.5 26.5 24.7 27.9 27.7 26.8 25.9 24.9 23.5 21.9 17.6 12.0 8.2 6.5 6.5 4.9 8.2 6.0 6.4
6.0 4.9 5.5 7.3 8.6 9.5 13.5 17.2 16.5 17.1 6.5 7.8 9.1 5.3 7.4 8.4 7.8 14.2 17.7 13.6 22.4 19.6 19.1 26.5 26.0 23.5 21.1 18.6 15.4 12.8 10.5 8.3 9.1 8.6 8.6 7.9 5.2 5.5 5.6 3.5 4.6 5.1 7.7
2.7 2.5 3.3 3.5 4.9 6.9 10.0 13.1 14.1 18.4 18.1 22.1 18.0 24.1 26.6 22.6 22.4 18.4 19.4 21.1 19.3 20.1 19.5 17.2 15.0 13.3 11.1 9.0 9.2 5.3 4.2 5.7 5.2 8.1 8.1 6.3 7.0 7.3 7.6 5.3 5.2 6.4 6.9
1.6 1.3 3.1 3.2 4.2 7.9 8.8 11.2 15.1 24.2 26.9 30.5 30.2 29.8 29.6 31.5 28.1 30.0 30.4 28.3 26.5 20.7 23.2 19.2 18.7 15.9 15.1 12.8 12.0 9.5 11.5 9.5 9.6 11.2 11.4 12.5 11.9 10.7 11.8 9.8 8.5 6.1 5.6
1.0 5.0 9.9 14.6 17.1 17.2 19.1 22.6 23.4 25.1 25.0 26.8 25.4 23.9 21.7 21.8 21.4 21.7 23.2 22.6 29.4 25.9 24.5 24.8 25.9 25.3 24.6 23.5 19.5 19.7 18.2 14.5 14.5 14.9 13.6 13.4 14.7 15.0 14.2 12.3 13.0 11.8 9.7
7.7 10.0 11.9 11.8 11.4 10.6 9.8 11.7 12.6 13.0 14.7 15.4 14.5 12.9 13.0 11.9 11.2 11.7 11.0 13.4 17.6 19.9 22.5 21.3 22.8 23.2 23.8 23.6 24.4 24.4 25.5 25.8 23.9 23.3 22.3 22.8 22.6 21.9 19.9 17.8 16.9 14.0 12.2
9.0 10.3 8.9 8.5 9.2 9.3 7.8 6.9 7.0 6.2 6.6 6.7 7.5 9.1 7.5 6.0 5.0 6.8 8.4 11.3 12.2 13.0 15.6 17.3 17.9 17.5 18.6 20.6 21.3 21.6 20.7 20.8 21.0 21.9 22.6 21.5 22.8 23.1 24.5 22.3 20.5 21.1 16.7
10.0 9.3 7.6 6.3 6.0 5.6 4.9 4.7 4.5 5.0 5.0 4.0 4.0 3.3 3.6 4.0 4.8 5.4 7.1 8.4 8.9 10.6 12.5 13.2 14.3 14.2 14.4 15.9 15.2 16.5 16.3 16.5 16.2 18.1 19.3 19.5 20.0 23.2 19.3 21.5 20.7 17.9 15.6
6.7 5.9 5.0 5.2 4.2 3.9 3.2 2.7 2.7 3.5 3.1 3.7 4.3 4.0 6.0 5.5 5.0 4.9 4.8 5.5 5.8 6.2 8.6 11.5 12.6 13.9 14.8 16.7 16.3 16.3 14.5 13.8 13.6 14.7 15.3 16.6 17.6 18.3 18.7 18.9 18.4 18.7 16.1
4.0 4.1 3.4 3.6 3.3 2.7 3.1 2.2 3.8 4.1 4.2 3.7 3.9 5.3 5.4 5.4 5.1 5.2 5.3 5.0 4.7 5.4 4.7 8.2 9.1 8.7 9.2 11.7 12.4 16.3 17.1 15.2 15.3 17.0 18.4 15.1 15.4 17.3 17.7 17.9 16.7 18.5 17.2
1.9 2.3 2.5 1.9 2.6 2.1 2.8 3.1 3.4 5.1 6.2 5.2 4.6 4.4 5.4 5.9 6.0 6.2 5.5 5.4 5.4 6.0 6.9 7.9 9.0 10.0 9.9 8.4 9.6 11.1 12.8 14.4 14.5 15.5 19.4 17.9 14.0 14.1 16.2 16.2 15.4 15.9 16.4
1.4 1.9 2.3 2.3 3.0 4.4 4.8 5.0 4.5 2.7 4.0 4.3 4.1 4.2 3.4 4.3 5.0 6.9 7.0 6.7 6.7 8.5 9.4 9.6 9.7 9.8 10.8 11.0 12.5 12.2 11.7 13.1 15.8 17.4 18.0 17.0 15.0 12.4 15.2 16.0 14.5 15.1 14.8
1.6 2.2 2.8 3.1 3.2 4.7 4.9 5.1 4.4 3.0 3.3 3.6 4.1 4.0 4.6 4.9 6.0 7.4 7.6 7.5 8.0 10.2 10.9 11.7 12.4 11.1 10.5 10.7 11.5 12.0 11.9 12.3 13.9 16.9 19.0 17.6 15.5 13.6 13.7 14.3 14.0 15.4 13.5